Regional Weather Roundup
Issued by NWS Midland/Odessa, TX

Skip options and go directly to product.
Home | Oldest Version | Previous Version | Current Version | All | Graphics & Text | Save Text | Print | Product List | Glossary On

Skip product version selection by date and time.   
023
ASUS44 KMAF 311710
RWRMAF
MIDLAND AREA WEATHER ROUNDUP
NATIONAL WEATHER SERVICE MIDLAND TX
1100 AM CST SAT JAN 31 2015

...IN SOUTHWEST TEXAS AND SOUTHEAST NEW MEXICO...

CITY           SKY/WX    TMP DP  RH WIND       PRES   REMARKS
ALPINE         CLOUDY    56  47  73 S21G26    30.02S
ANDREWS        FOG       42  42 100 SE5       29.99F VSB 1/4 WCI  39
ARTESIA        CLOUDY    39  39 100 CALM      29.99S FOG
BIG SPRING     CLOUDY    49  46  88 S8        30.04R
CARLSBAD       CLOUDY    43  41  93 NW6       29.97F FOG     WCI  39
DRYDEN           N/A     49  48  97 SE9       30.00S
FORT STOCKTON  CLOUDY    50  47  89 SE9       29.97S
GUAD PASS      FOG       44  44 100 SW10      29.97S VSB<1/4 WCI  39
HOBBS          FOG       41  41 100 SE7       29.98F VSB 3/4 WCI  36
MARFA          CLOUDY    48  46  93 S14       29.99S
MIDLAND AIRPK  RAIN      48  48 100 S10       30.00F
MIDLAND INTL   LGT RAIN  48  46  93 S8        29.99F FOG
ODESSA         CLOUDY    47  45  93 S6        29.99S FOG
PECOS          CLOUDY    46  44  93 CALM      29.97F FOG
PRESIDIO       PTSUNNY   54  52  92 E7        29.96S
SEMINOLE       DRIZZLE   40  40 100 SE6       30.00F WCI  36
SNYDER         DRIZZLE  N/A N/A N/A SE12      30.02S
WINK           CLOUDY    48  44  86 SE10      29.96F
$$
...OTHER STATIONS IN TEXAS...

CITY           SKY/WX    TMP DP  RH WIND       PRES   REMARKS
ABILENE        LGT RAIN  45  43  93 S10       30.06F FOG     WCI  40
AMARILLO       LGT RAIN  34  33  96 S10       30.01F WCI  26
AUSTIN         LGT RAIN  51  47  86 E6        30.13F FOG
BROWNSVILLE    PTSUNNY   74  63  68 SE17      30.09F
CORPUS CHRISTI PTSUNNY   70  64  81 SE20      30.10F
DALLAS FTW     CLOUDY    49  33  54 SE14      30.17F
DEL RIO        LGT RAIN  50  49  96 SE7       30.04F FOG
EL PASO        LGT RAIN  45  44  97 NE6       29.92R
HOUSTON INT    CLOUDY    56  45  66 E10       30.20F
LUBBOCK        LGT RAIN  38  38 100 SE7       30.00F FOG     WCI  33
SAN ANGELO     LGT RAIN  50  48  93 CALM      30.04F
SAN ANTONIO    DRZL/FOG  53  52  96 E8        30.11F VSB 1
WACO           CLOUDY    48  37  65 SE7       30.17F
WICHITA FALLS  NOT AVBL
$$
...OTHER LOCATIONS IN NEW MEXICO...

CITY           SKY/WX    TMP DP  RH WIND       PRES   REMARKS
ALAMAGORDO     CLOUDY    43  43 100 NW7       29.95R WCI  39
ALBUQUERQUE    LGT RAIN  35  34  96 NW3       29.93F FOG
CANNON AFB     CLOUDY    35  35 100 CALM      29.98S FOG
CLOVIS         CLOUDY    36  34  93 S6        29.98F WCI  31
HOLLOMAN AFB   CLOUDY    43  43 100 NW3       29.94R
ROSWELL        CLOUDY    39  38  96 CALM      29.97S FOG
RUIDOSO        LGT RAIN  37  37 100 NE5       29.96S VSB 1/4 WCI  34
SANTA FE       LGT SNOW  32  27  81 SE9       29.92S WCI  24
TRUTH OR CONSE CLOUDY    42  41  96 E3        29.92R FOG
TUCUMCARI      LGT RAIN  37  35  92 S5        29.96F WCI  33
$$

USA.gov is the U.S. government's official web portal to all federal, state and local government web resources and services.